When you browse on this site, cookies collect data to enhance your experience and personalize the content and advertising you see.
Visit our Privacy Policy to learn more. By continuing to use the site, you agree to this use of cookies and data.
  • In Czech Republic
  • List of Countries
  • For 7 days
  • Water Temperature
  • Satellite Maps
  • Weather Map
  • Weather Widgets
  • user-avatar
    Login

    Hourly Weather Kirpichnyy

    Today, 16 February, Saturday

    Time Temperature Precipitation Wind Pressure Humidity
    00:00 -1°C° 0.1 mm 5 mps 742 mmHg 90%
    01:00 -1°C° 0.1 mm 4 mps 742 mmHg 91%
    02:00 -1°C° 0.1 mm 4 mps 742 mmHg 91%
    03:00 -1°C° 0 mm 3 mps 742 mmHg 93%
    04:00 -1°C° 0.1 mm 3 mps 742 mmHg 93%
    05:00 -1°C° 0.1 mm 3 mps 742 mmHg 93%
    06:00 -2°C° 0.1 mm 4 mps 743 mmHg 93%
    07:00 -2°C° 0.1 mm 4 mps 743 mmHg 93%
    08:00 -1°C° 0.1 mm 4 mps 743 mmHg 93%
    09:00 -1°C° 0 mm 4 mps 743 mmHg 94%
    10:00 -1°C° 0.2 mm 4 mps 743 mmHg 95%
    11:00 -1°C° 0.2 mm 4 mps 743 mmHg 96%
    12:00 -1°C° 0.2 mm 4 mps 743 mmHg 97%
    13:00 -1°C° 0.1 mm 4 mps 743 mmHg 96%
    14:00 -1°C° 0.1 mm 4 mps 744 mmHg 94%
    15:00 -1°C° 0.1 mm 4 mps 744 mmHg 92%
    16:00 -1°C° 0 mm 4 mps 745 mmHg 91%
    17:00 -2°C° 0 mm 4 mps 745 mmHg 90%
    18:00 -2°C° 0 mm 4 mps 746 mmHg 90%
    19:00 -2°C° 0 mm 3 mps 746 mmHg 90%
    20:00 -4°C° 0 mm 3 mps 746 mmHg 91%
    21:00 -5°C° 0 mm 3 mps 747 mmHg 92%
    22:00 -6°C° 0 mm 3 mps 747 mmHg 93%
    23:00 -8°C° 0 mm 3 mps 747 mmHg 94%

    Tomorrow, 17 February, Sunday

    Time Temperature Precipitation Wind Pressure Humidity
    00:00 -8°C° 0 mm 2 mps 747 mmHg 95%
    01:00 -9°C° 0 mm 2 mps 747 mmHg 95%
    02:00 -10°C° 0 mm 2 mps 746 mmHg 95%
    03:00 -12°C° 0 mm 2 mps 746 mmHg 95%
    04:00 -10°C° 0 mm 2 mps 745 mmHg 95%
    05:00 -9°C° 0 mm 2 mps 745 mmHg 94%
    06:00 -9°C° 0 mm 2 mps 744 mmHg 94%
    07:00 -9°C° 0 mm 3 mps 743 mmHg 93%
    08:00 -8°C° 0 mm 3 mps 742 mmHg 93%
    09:00 -9°C° 0 mm 4 mps 741 mmHg 92%
    10:00 -7°C° 0 mm 4 mps 740 mmHg 91%
    11:00 -6°C° 0 mm 5 mps 739 mmHg 91%
    12:00 -5°C° 0 mm 5 mps 738 mmHg 90%
    13:00 -5°C° 0.1 mm 5 mps 737 mmHg 90%
    14:00 -4°C° 0.1 mm 5 mps 736 mmHg 90%
    15:00 -2°C° 0.1 mm 5 mps 735 mmHg 90%
    16:00 -2°C° 0.3 mm 4 mps 734 mmHg 91%
    17:00 -2°C° 0.3 mm 4 mps 734 mmHg 92%
    18:00 -2°C° 0.3 mm 4 mps 733 mmHg 94%
    19:00 -2°C° 0.3 mm 4 mps 733 mmHg 92%
    20:00 -2°C° 0.3 mm 4 mps 733 mmHg 90%
    21:00 -4°C° 0.3 mm 5 mps 732 mmHg 88%
    22:00 -4°C° 0 mm 4 mps 732 mmHg 90%
    23:00 -5°C° 0 mm 4 mps 732 mmHg 91%

    Day after tomorrow, 18 February, Monday

    Time Temperature Precipitation Wind Pressure Humidity
    00:00 -6°C° 0 mm 3 mps 732 mmHg 93%
    01:00 -6°C° 0 mm 3 mps 732 mmHg 93%
    02:00 -5°C° 0 mm 3 mps 732 mmHg 94%
    03:00 -5°C° 0 mm 3 mps 732 mmHg 94%
    04:00 -5°C° 0.1 mm 3 mps 733 mmHg 94%
    05:00 -5°C° 0.1 mm 3 mps 733 mmHg 94%
    06:00 -5°C° 0.1 mm 3 mps 733 mmHg 94%
    07:00 -4°C° 0.2 mm 4 mps 734 mmHg 92%
    08:00 -5°C° 0.2 mm 5 mps 735 mmHg 90%
    09:00 -5°C° 0.2 mm 6 mps 736 mmHg 89%
    10:00 -5°C° 0.3 mm 6 mps 737 mmHg 86%
    11:00 -6°C° 0.3 mm 7 mps 738 mmHg 84%
    12:00 -6°C° 0.3 mm 8 mps 739 mmHg 82%
    13:00 -6°C° 0.1 mm 8 mps 740 mmHg 81%
    14:00 -6°C° 0.1 mm 8 mps 741 mmHg 80%
    15:00 -6°C° 0.1 mm 8 mps 742 mmHg 80%
    16:00 -7°C° 0.1 mm 8 mps 743 mmHg 80%
    17:00 -8°C° 0.1 mm 8 mps 744 mmHg 80%
    18:00 -10°C° 0.1 mm 8 mps 746 mmHg 80%
    19:00 -11°C° 0 mm 8 mps 747 mmHg 79%
    20:00 -12°C° 0 mm 8 mps 748 mmHg 78%
    21:00 -13°C° 0 mm 7 mps 749 mmHg 77%
    22:00 -14°C° 0 mm 7 mps 750 mmHg 77%
    23:00 -15°C° 0 mm 6 mps 751 mmHg 77%

    19 February, Tuesday

    Time Temperature Precipitation Wind Pressure Humidity
    00:00 -16°C° 0 mm 6 mps 752 mmHg 77%
    01:00 -16°C° 0 mm 6 mps 753 mmHg 79%
    02:00 -15°C° 0 mm 5 mps 754 mmHg 81%
    03:00 -17°C° 0 mm 5 mps 755 mmHg 83%
    04:00 -17°C° 0 mm 4 mps 755 mmHg 86%
    05:00 -16°C° 0 mm 3 mps 756 mmHg 89%
    06:00 -17°C° 0 mm 3 mps 756 mmHg 92%
    07:00 -16°C° 0 mm 2 mps 757 mmHg 92%
    08:00 -15°C° 0 mm 2 mps 757 mmHg 92%
    09:00 -15°C° 0 mm 2 mps 757 mmHg 92%
    10:00 -13°C° 0 mm 2 mps 757 mmHg 90%
    11:00 -13°C° 0 mm 3 mps 757 mmHg 88%
    12:00 -10°C° 0 mm 3 mps 756 mmHg 86%
    13:00 -10°C° 0 mm 4 mps 755 mmHg 82%
    14:00 -11°C° 0 mm 5 mps 755 mmHg 78%
    15:00 -10°C° 0 mm 5 mps 754 mmHg 75%
    16:00 -10°C° 0 mm 5 mps 754 mmHg 77%
    17:00 -10°C° 0 mm 5 mps 753 mmHg 78%
    18:00 -10°C° 0 mm 5 mps 753 mmHg 80%
    19:00 -10°C° 0 mm 5 mps 753 mmHg 82%
    20:00 -10°C° 0 mm 5 mps 753 mmHg 84%
    21:00 -9°C° 0 mm 4 mps 752 mmHg 86%
    22:00 -9°C° 0 mm 4 mps 752 mmHg 87%
    23:00 -9°C° 0 mm 4 mps 752 mmHg 89%

    20 February, Wednesday

    Time Temperature Precipitation Wind Pressure Humidity
    00:00 -10°C° 0 mm 4 mps 752 mmHg 90%
    01:00 -10°C° 0 mm 4 mps 752 mmHg 91%
    02:00 -11°C° 0 mm 4 mps 752 mmHg 92%
    03:00 -10°C° 0 mm 3 mps 751 mmHg 93%
    04:00 -10°C° 0 mm 3 mps 751 mmHg 92%
    05:00 -11°C° 0 mm 4 mps 751 mmHg 92%
    06:00 -11°C° 0 mm 4 mps 751 mmHg 91%
    07:00 -10°C° 0 mm 4 mps 750 mmHg 89%
    08:00 -9°C° 0 mm 4 mps 750 mmHg 86%
    09:00 -8°C° 0 mm 5 mps 750 mmHg 84%
    10:00 -7°C° 0 mm 5 mps 749 mmHg 81%
    11:00 -6°C° 0 mm 6 mps 749 mmHg 79%
    12:00 -5°C° 0 mm 6 mps 748 mmHg 76%
    13:00 -5°C° 0 mm 6 mps 748 mmHg 77%
    14:00 -5°C° 0 mm 6 mps 748 mmHg 78%
    15:00 -5°C° 0 mm 6 mps 747 mmHg 79%
    16:00 -6°C° 0 mm 6 mps 747 mmHg 81%
    17:00 -6°C° 0 mm 6 mps 747 mmHg 84%
    18:00 -6°C° 0 mm 5 mps 747 mmHg 86%
    19:00 -6°C° 0.1 mm 5 mps 747 mmHg 87%
    20:00 -6°C° 0.1 mm 5 mps 747 mmHg 88%
    21:00 -5°C° 0.1 mm 5 mps 746 mmHg 89%
    22:00 -5°C° 0.1 mm 5 mps 746 mmHg 90%
    23:00 -5°C° 0.1 mm 5 mps 746 mmHg 90%

    21 February, Thursday

    Time Temperature Precipitation Wind Pressure Humidity
    00:00 -5°C° 0.1 mm 5 mps 746 mmHg 91%
    01:00 -5°C° 0.1 mm 5 mps 745 mmHg 91%
    02:00 -4°C° 0.1 mm 4 mps 745 mmHg 91%
    03:00 -4°C° 0.1 mm 4 mps 745 mmHg 91%
    04:00 -4°C° 0.1 mm 4 mps 744 mmHg 91%
    05:00 -4°C° 0.1 mm 4 mps 744 mmHg 92%
    06:00 -4°C° 0.1 mm 4 mps 744 mmHg 92%
    07:00 -4°C° 0.3 mm 4 mps 743 mmHg 92%
    08:00 -5°C° 0.3 mm 5 mps 743 mmHg 92%
    09:00 -5°C° 0.3 mm 5 mps 743 mmHg 92%
    10:00 -4°C° 0.6 mm 5 mps 743 mmHg 92%
    11:00 -4°C° 0.6 mm 5 mps 742 mmHg 92%
    12:00 -2°C° 0.6 mm 5 mps 742 mmHg 92%
    13:00 -2°C° 0.4 mm 4 mps 742 mmHg 92%
    14:00 -2°C° 0.4 mm 4 mps 742 mmHg 91%
    15:00 -1°C° 0.4 mm 4 mps 742 mmHg 91%
    16:00 -1°C° 0.3 mm 4 mps 742 mmHg 91%
    17:00 -1°C° 0.3 mm 4 mps 742 mmHg 91%
    18:00 -2°C° 0.3 mm 4 mps 742 mmHg 91%
    19:00 -2°C° 0.3 mm 4 mps 741 mmHg 92%
    20:00 -2°C° 0.3 mm 4 mps 741 mmHg 93%
    21:00 -2°C° 0.3 mm 4 mps 741 mmHg 94%
    22:00 -1°C° 0.4 mm 3 mps 741 mmHg 94%
    23:00 -1°C° 0.4 mm 3 mps 741 mmHg 95%
    Show more